Location: Antonio Ribeiro de Abreu
(19.8340°S, 43.9053°W)
Time: 14:11:35
(UTC+00:00)

Daily predictions for brighter satellites

Satellite Brightness Start Highest point End
(mag) Time Altitude Azimuth Time Altitude Azimuth Time Altitude Azimuth
Cosmos 1727 Rocket 4.0 21:52:56 10° N 21:59:02 66° E 22:05:16 10° SSE
Cosmos 2237 Rocket 2.3 21:55:42 10° NNW 22:01:19 90° WSW 22:07:02 10° SSE
CZ-4 R/B 1.4 21:58:18 10° S 22:02:15 86° WSW 22:06:12 10° NNW
Cosmos 2278 Rocket 4.0 22:00:45 10° SE 22:03:20 13° ESE 22:05:54 10° E
Cosmos 2251 Rocket 4.3 21:59:07 10° NNE 22:03:43 30° E 22:08:22 10° SE
USA 215 3.7 21:58:29 10° ENE 22:04:46 51° SE 22:11:06 10° SSW
Cosmos 371 Rocket 3.9 22:02:51 10° S 22:07:25 38° ESE 22:11:56 10° NE
ATLAS 3B R/B 4.1 22:01:35 10° SW 22:08:05 39° WNW 22:14:20 10° N
Cosmos 1605 Rocket 4.0 22:03:40 10° S 22:09:50 67° E 22:16:01 10° NNE
ATLAS 5 CENTAUR R/B 2.4 22:10:39 10° W 22:14:56 89° S 22:32:45 10° E
STARLINK-60 3.0 22:12:14 10° SW 22:15:34 86° SE 22:18:52 10° NE
CZ-4C R/B 3.3 22:07:21 10° NNW 22:15:51 83° WSW 22:23:43 10° SSE
NOAA 11 4.2 22:11:16 10° SSE 22:16:50 80° ENE 22:22:19 10° N
Cosmos 1892 4.3 22:19:25 10° SSW 22:23:03 38° W 22:26:40 10° NNW
Ariane Rocket 3.7 22:18:43 10° SE 22:23:15 32° E 22:27:44 10° NNE
Cosmos 1844 Rocket 3.3 22:18:00 10° SSW 22:23:31 59° WNW 22:28:57 10° N
Okean 3 Rocket 4.0 22:20:34 10° SSW 22:24:58 66° W 22:29:20 10° N
Cosmos 1842 Rocket 3.6 22:21:06 10° N 22:25:34 90° WSW 22:30:03 10° S
SL-16 R/B 2.4 22:21:37 10° N 22:26:59 47° ENE 22:32:23 10° SSE
Cosmos 1331 Rocket 4.4 22:22:26 10° S 22:27:23 42° ESE 22:31:45 13° NE
FREGAT/IRIS 4.1 22:26:05 10° SE 22:27:45 17° E 22:27:45 17° E
Yuri Rocket 4.5 22:24:57 10° W 22:28:34 27° NNW 22:32:14 12° NNE
CZ-2C R/B 2.9 22:29:38 10° NNE 22:35:00 51° ESE 22:40:19 10° S
H-2A R/B 3.6 22:29:01 10° W 22:35:21 22° SSW 22:37:55 10° SSE
Cosmos 2100 Rocket 4.4 22:33:20 10° SSE 22:39:12 41° E 22:44:04 15° NNE
Cosmos 1825 2.3 22:36:14 10° S 22:40:04 79° W 22:43:50 10° N
Meteor 2-3 Rocket 4.0 22:35:30 10° S 22:41:02 47° E 22:45:26 15° NNE
Palapa B4 Rocket 3.0 22:38:21 10° WNW 22:42:02 46° NNE 22:43:42 27° ENE
CZ-3 Stage 3 3.1 22:39:58 10° SW 22:42:50 31° SSE 22:48:50 14° E
Delta 142 4.4 22:40:41 10° W 22:45:10 45° SSW 22:49:08 10° ESE
ATLAS 3B CENTAUR R/B 1.7 22:48:19 10° W 22:51:20 65° SSW 22:57:45 10° ESE
Cosmos 304 Rocket 3.9 22:50:15 10° S 22:54:57 53° ESE 22:57:00 31° NE
IRS-1A Rocket 4.3 22:49:24 10° SSE 22:55:20 67° ENE 23:01:07 10° N
GPS 2-15 Rocket1 3.5 22:52:32 10° W 22:57:23 54° NNW 22:59:18 33° NE
MOS 1 4.4 22:52:45 10° SSE 22:58:20 53° ENE 23:03:52 10° N
Lacrosse 5 rocket 3.7 22:59:03 10° SE 23:00:03 11° SE 23:00:03 11° SE
Cosmos 2221 3.8 22:56:16 10° NNW 23:00:22 41° W 23:04:33 10° SSW
Cosmos 2173 Rocket 3.9 22:55:55 10° S 23:01:59 63° E 23:06:00 22° NNE
Cosmos 2123 Rocket 3.9 22:57:18 10° N 23:03:27 68° E 23:09:38 10° S
CZ-3A R/B 3.8 22:28:22 10° WSW 23:04:05 56° NW 23:08:31 26° NNE
Hubble Space Telescope 2.3 23:02:18 10° WSW 23:06:04 32° SSW 23:08:53 15° SE
MOS 1 Rocket 2.9 23:04:51 36° NNE 23:06:30 73° ESE 23:10:51 10° S
H-2A R/B 1.9 23:03:56 10° SSE 23:08:49 58° E 23:11:10 29° NNE
Cosmos 1375 Rocket 4.5 23:02:54 10° SSW 23:09:07 63° ESE 23:11:42 36° NE
CRYOSAT 2 4.5 23:04:31 10° SSE 23:09:17 51° E 23:10:24 42° NE
Cosmos 1867 3.5 23:08:02 10° SSW 23:13:27 88° WNW 23:15:40 37° NNE
Cosmos 1725 Rocket 4.3 23:12:18 10° SSE 23:18:15 42° E 23:19:08 40° ENE
Cosmos 2061 Rocket 3.9 23:18:16 10° S 23:24:33 69° E 23:26:40 43° NNE
ASTRO E2 4.1 23:29:08 10° NW 23:31:10 29° NW 23:31:10 29° NW
Delta 198 4.0 23:31:31 10° WSW 23:34:19 45° SW 23:34:19 45° SW
USA 186 3.8 23:33:27 10° SSW 23:36:09 26° WSW 23:36:17 26° W
Meteor 2-20 4.3 23:36:40 60° NE 23:37:30 67° E 23:43:38 10° SSE
SPOT 3 Rocket 3.4 23:32:55 10° SSE 23:38:07 77° ENE 23:38:07 77° ENE
SL-08 R/B 4.4 23:33:02 10° S 23:39:18 74° E 23:40:19 62° NE
BREEZE-M DEB (TANK) 4.4 23:34:46 10° WNW 23:40:26 29° SW 23:42:15 17° S
SL-08 RB Rocket 3.9 23:39:32 10° S 23:43:38 67° S 23:43:38 67° S
SJ-6B 4.1 23:42:37 10° S 23:46:31 40° WSW 23:47:17 36° WNW
Cosmos 2278 Rocket 2.8 23:42:02 10° SSW 23:47:33 52° WNW 23:48:55 42° NNW
ARGOS 3.6 23:43:30 10° S 23:48:48 60° WSW 23:51:19 30° NW
Aureole 1 Rocket 4.4 23:43:53 10° NNW 23:50:49 59° WSW 23:56:11 10° S
Cosmos 1864 Rocket 4.4 23:44:39 10° S 23:51:04 90° WNW 23:51:55 70° N
